RYR6199 EGSS-EDFH

Flight info

Callsign RYR6199
Flight time 1h 2m
Altitude 33000
Route CLN M84 KONAN UL607 SPI Q50 ARCKY L607 EMGOD
Aircraft B738/M-SDE3FGILRWY/SB1

Departure

Time 2026-05-01 13:35
Airport London Stansted Airport (EGSS)

Arrival

Time 2026-05-01 14:38
Airport Frankfurt-Hahn Airport (EDFH)
Time Latitude Longitude Altitude Speed Heading
2026-05-01 12:54 51.89220 0.25483 351 ft 0 kts 102°
2026-05-01 13:25 51.89221 0.25471 351 ft 4 kts 102°
2026-05-01 13:25 51.89227 0.25429 357 ft 3 kts 102°
2026-05-01 13:25 51.89233 0.25396 360 ft 4 kts 131°
2026-05-01 13:25 51.89247 0.25386 361 ft 4 kts 218°
2026-05-01 13:26 51.89265 0.25411 358 ft 1 kts 223°
2026-05-01 13:26 51.89266 0.25412 358 ft 1 kts 223°
2026-05-01 13:29 51.89265 0.25411 358 ft 1 kts 223°
2026-05-01 13:30 51.89242 0.25148 353 ft 10 kts 277°
2026-05-01 13:31 51.89105 0.24872 351 ft 22 kts 223°
2026-05-01 13:31 51.88698 0.24263 346 ft 29 kts 221°
2026-05-01 13:32 51.88428 0.23856 343 ft 25 kts 223°
2026-05-01 13:33 51.88074 0.23325 336 ft 22 kts 222°
2026-05-01 13:33 51.87856 0.23001 337 ft 20 kts 224°
2026-05-01 13:34 51.87920 0.22707 332 ft 17 kts 313°
2026-05-01 13:34 51.88032 0.22778 329 ft 15 kts 43°
2026-05-01 13:35 51.88785 0.23908 341 ft 140 kts 42°
2026-05-01 13:35 51.89583 0.25090 509 ft 176 kts 47°
2026-05-01 13:35 51.91217 0.28041 2105 ft 176 kts 72°
2026-05-01 13:36 51.91510 0.29975 2878 ft 178 kts 90°
2026-05-01 13:36 51.91444 0.31941 3648 ft 177 kts 111°
2026-05-01 13:36 51.90456 0.35593 5176 ft 181 kts 121°
2026-05-01 13:37 51.89918 0.37441 6022 ft 179 kts 121°
2026-05-01 13:37 51.89381 0.39282 6782 ft 182 kts 122°
2026-05-01 13:37 51.88837 0.41138 7373 ft 195 kts 121°
2026-05-01 13:37 51.88206 0.43221 7701 ft 207 kts 122°
2026-05-01 13:38 51.86957 0.47239 9123 ft 197 kts 120°
2026-05-01 13:38 51.86393 0.49284 9633 ft 201 kts 120°
2026-05-01 13:38 51.85791 0.51414 9980 ft 216 kts 120°
2026-05-01 13:39 51.85134 0.53692 10303 ft 232 kts 120°
2026-05-01 13:39 51.84415 0.56148 10632 ft 251 kts 120°
2026-05-01 13:39 51.83648 0.58800 10997 ft 271 kts 117°
2026-05-01 13:39 51.83090 0.61843 11350 ft 292 kts 104°
2026-05-01 13:40 51.82941 0.65189 11690 ft 301 kts 92°
2026-05-01 13:40 51.83067 0.68545 12190 ft 299 kts 90°
2026-05-01 13:40 51.83221 0.71922 12705 ft 303 kts 90°
2026-05-01 13:40 51.83372 0.75308 13336 ft 301 kts 91°
2026-05-01 13:41 51.83508 0.78648 13952 ft 304 kts 91°
2026-05-01 13:41 51.83639 0.82103 14481 ft 311 kts 92°
2026-05-01 13:41 51.83767 0.85667 15034 ft 315 kts 92°
2026-05-01 13:41 51.83894 0.89201 15560 ft 316 kts 92°
2026-05-01 13:42 51.84022 0.92784 16175 ft 322 kts 92°
2026-05-01 13:42 51.84152 0.96427 16799 ft 328 kts 92°
2026-05-01 13:42 51.84283 1.00109 17171 ft 338 kts 92°
2026-05-01 13:42 51.84417 1.03928 17167 ft 341 kts 92°
2026-05-01 13:43 51.84550 1.07756 17172 ft 340 kts 92°
2026-05-01 13:43 51.84526 1.11537 17306 ft 331 kts 108°
2026-05-01 13:43 51.83593 1.14782 17960 ft 316 kts 131°
2026-05-01 13:43 51.82058 1.17295 18593 ft 315 kts 147°
2026-05-01 13:44 51.80137 1.18959 19170 ft 314 kts 162°
2026-05-01 13:44 51.78056 1.20089 19750 ft 317 kts 164°
2026-05-01 13:44 51.75938 1.21134 20322 ft 320 kts 165°
2026-05-01 13:44 51.73793 1.22176 20927 ft 323 kts 165°
2026-05-01 13:45 51.71631 1.23237 21534 ft 325 kts 164°
2026-05-01 13:45 51.69460 1.24316 22152 ft 327 kts 164°
2026-05-01 13:45 51.67283 1.25409 22785 ft 329 kts 164°
2026-05-01 13:45 51.65098 1.26512 23427 ft 329 kts 163°
2026-05-01 13:46 51.62912 1.27620 24029 ft 329 kts 163°
2026-05-01 13:46 51.60727 1.28728 24581 ft 329 kts 163°
2026-05-01 13:46 51.58542 1.29837 25147 ft 329 kts 163°
2026-05-01 13:46 51.56364 1.30941 25715 ft 327 kts 163°
2026-05-01 13:47 51.54199 1.32040 26307 ft 326 kts 163°
2026-05-01 13:47 51.52032 1.33138 26770 ft 328 kts 163°
2026-05-01 13:47 51.49833 1.34248 27155 ft 333 kts 163°
2026-05-01 13:47 51.47612 1.35367 27556 ft 336 kts 164°
2026-05-01 13:48 51.45395 1.36630 27950 ft 341 kts 155°
2026-05-01 13:48 51.43360 1.38637 28358 ft 346 kts 146°
2026-05-01 13:48 51.41556 1.41227 28753 ft 352 kts 134°
2026-05-01 13:48 51.40010 1.44295 29175 ft 356 kts 131°
2026-05-01 13:49 51.39009 1.46387 29434 ft 358 kts 131°
2026-05-01 13:49 51.37496 1.49588 29768 ft 362 kts 130°
2026-05-01 13:49 51.35971 1.52815 30115 ft 366 kts 131°
2026-05-01 13:49 51.34420 1.56076 30431 ft 370 kts 131°
2026-05-01 13:50 51.32337 1.60425 30832 ft 374 kts 131°
2026-05-01 13:50 51.30749 1.63723 31132 ft 376 kts 131°
2026-05-01 13:50 51.29664 1.65969 31337 ft 378 kts 131°
2026-05-01 13:50 51.28050 1.69305 31646 ft 381 kts 131°
2026-05-01 13:51 51.26426 1.72655 31947 ft 383 kts 131°
2026-05-01 13:51 51.24792 1.76021 32255 ft 385 kts 131°
2026-05-01 13:51 51.23168 1.79362 32563 ft 386 kts 131°
2026-05-01 13:51 51.21519 1.82753 32872 ft 388 kts 131°
2026-05-01 13:52 51.19862 1.86158 33186 ft 389 kts 131°
2026-05-01 13:52 51.16471 1.93096 33207 ft 403 kts 131°
2026-05-01 13:53 51.13565 2.00891 33215 ft 418 kts 113°
2026-05-01 13:53 51.12428 2.10029 33218 ft 421 kts 98°
2026-05-01 13:53 51.12204 2.14656 33198 ft 418 kts 98°
2026-05-01 13:54 51.11778 2.23871 33207 ft 418 kts 98°
2026-05-01 13:54 51.11301 2.33113 33190 ft 419 kts 98°
2026-05-01 13:55 51.10790 2.42371 33183 ft 420 kts 98°
2026-05-01 13:55 51.10270 2.51643 33190 ft 421 kts 98°
2026-05-01 13:56 51.09741 2.60928 33190 ft 422 kts 98°
2026-05-01 13:56 51.08753 2.70066 33196 ft 417 kts 109°
2026-05-01 13:57 51.07104 2.78851 33184 ft 417 kts 110°
2026-05-01 13:57 51.05433 2.87685 33195 ft 417 kts 109°
2026-05-01 13:58 51.03796 2.96531 33204 ft 417 kts 109°
2026-05-01 13:58 51.02169 3.05390 33202 ft 417 kts 109°
2026-05-01 13:59 51.00542 3.14230 33199 ft 417 kts 109°
2026-05-01 13:59 50.98908 3.23067 33201 ft 417 kts 109°
2026-05-01 14:00 50.97268 3.31890 33192 ft 417 kts 109°
2026-05-01 14:00 50.95620 3.40715 33194 ft 416 kts 109°
2026-05-01 14:01 50.93969 3.49516 33202 ft 416 kts 109°
2026-05-01 14:01 50.92314 3.58314 33207 ft 416 kts 109°
2026-05-01 14:02 50.90644 3.67100 33206 ft 416 kts 109°
2026-05-01 14:02 50.88944 3.75867 33200 ft 416 kts 109°
2026-05-01 14:03 50.87238 3.84628 33208 ft 417 kts 109°
2026-05-01 14:03 50.85539 3.93339 33208 ft 417 kts 109°
2026-05-01 14:04 50.83828 4.02086 33221 ft 418 kts 109°
2026-05-01 14:04 50.82102 4.10874 33228 ft 418 kts 109°
2026-05-01 14:05 50.80367 4.19666 33238 ft 419 kts 109°
2026-05-01 14:05 50.78626 4.28451 33237 ft 419 kts 109°
2026-05-01 14:06 50.76878 4.37237 33242 ft 418 kts 109°
2026-05-01 14:06 50.75126 4.46004 33239 ft 418 kts 109°
2026-05-01 14:07 50.73385 4.54692 33239 ft 417 kts 110°
2026-05-01 14:07 50.72515 4.59007 33224 ft 406 kts 110°
2026-05-01 14:08 50.70876 4.67336 33212 ft 389 kts 109°
2026-05-01 14:08 50.70102 4.71350 33220 ft 376 kts 109°
2026-05-01 14:08 50.69344 4.75275 33217 ft 363 kts 109°
2026-05-01 14:08 50.68629 4.78962 33227 ft 352 kts 109°
2026-05-01 14:09 50.67911 4.82650 33248 ft 353 kts 109°
2026-05-01 14:09 50.66424 4.90220 33258 ft 369 kts 109°
2026-05-01 14:10 50.64861 4.97988 33242 ft 373 kts 110°
2026-05-01 14:10 50.63269 5.05722 33226 ft 366 kts 110°
2026-05-01 14:11 50.61710 5.13296 33227 ft 363 kts 110°
2026-05-01 14:11 50.59347 5.24750 33245 ft 369 kts 110°
2026-05-01 14:12 50.57758 5.32422 33251 ft 373 kts 110°
2026-05-01 14:12 50.56141 5.40201 33240 ft 375 kts 109°
2026-05-01 14:13 50.54792 5.46670 33240 ft 374 kts 110°
2026-05-01 14:13 50.52904 5.55705 33231 ft 370 kts 110°
2026-05-01 14:14 50.51139 5.63251 33237 ft 365 kts 121°
2026-05-01 14:14 50.48379 5.69882 33245 ft 362 kts 126°
2026-05-01 14:15 50.45558 5.76421 33252 ft 362 kts 125°
2026-05-01 14:15 50.42780 5.82956 32953 ft 357 kts 125°
2026-05-01 14:16 50.41399 5.86211 32390 ft 362 kts 125°
2026-05-01 14:16 50.39967 5.89579 31313 ft 381 kts 124°
2026-05-01 14:16 50.38476 5.93083 30678 ft 388 kts 124°
2026-05-01 14:16 50.36989 5.96582 30371 ft 384 kts 124°
2026-05-01 14:17 50.35511 6.00055 30007 ft 380 kts 124°
2026-05-01 14:17 50.34056 6.03470 29793 ft 373 kts 124°
2026-05-01 14:17 50.32623 6.06823 29453 ft 368 kts 124°
2026-05-01 14:17 50.31225 6.10088 29050 ft 366 kts 123°
2026-05-01 14:18 50.30032 6.13612 28487 ft 367 kts 110°
2026-05-01 14:18 50.29382 6.17445 28195 ft 362 kts 99°
2026-05-01 14:18 50.29024 6.21318 27861 ft 359 kts 99°
2026-05-01 14:18 50.28781 6.23926 27578 ft 358 kts 99°
2026-05-01 14:19 50.28280 6.29021 27015 ft 357 kts 99°
2026-05-01 14:19 50.27884 6.32827 26764 ft 352 kts 100°
2026-05-01 14:19 50.27478 6.36588 26371 ft 351 kts 100°
2026-05-01 14:19 50.27068 6.40357 25920 ft 352 kts 100°
2026-05-01 14:20 50.26660 6.44099 25663 ft 347 kts 100°
2026-05-01 14:20 50.26034 6.51489 25027 ft 341 kts 97°
2026-05-01 14:20 50.25769 6.55169 24673 ft 340 kts 96°
2026-05-01 14:21 50.25504 6.58838 24367 ft 338 kts 97°
2026-05-01 14:21 50.25235 6.62483 23992 ft 338 kts 97°
2026-05-01 14:21 50.24961 6.66123 23655 ft 336 kts 97°
2026-05-01 14:22 50.24401 6.73390 22670 ft 339 kts 98°
2026-05-01 14:22 50.24112 6.77088 21992 ft 346 kts 98°
2026-05-01 14:22 50.23816 6.80851 21344 ft 352 kts 99°
2026-05-01 14:22 50.23518 6.84611 20717 ft 356 kts 98°
2026-05-01 14:23 50.23206 6.88530 20075 ft 361 kts 98°
2026-05-01 14:23 50.22899 6.92386 19467 ft 364 kts 99°
2026-05-01 14:23 50.22583 6.96329 18855 ft 367 kts 99°
2026-05-01 14:23 50.22265 7.00292 18196 ft 370 kts 99°
2026-05-01 14:24 50.21941 7.04291 17521 ft 372 kts 99°
2026-05-01 14:24 50.21616 7.08297 16846 ft 372 kts 99°
2026-05-01 14:24 50.21289 7.12318 16196 ft 373 kts 99°
2026-05-01 14:24 50.20962 7.16336 15556 ft 374 kts 99°
2026-05-01 14:25 50.20427 7.20287 14925 ft 371 kts 112°
2026-05-01 14:25 50.19268 7.23858 14354 ft 369 kts 121°
2026-05-01 14:25 50.17935 7.27273 13729 ft 368 kts 123°
2026-05-01 14:25 50.16576 7.30650 13062 ft 362 kts 123°
2026-05-01 14:26 50.15252 7.33919 12420 ft 351 kts 123°
2026-05-01 14:26 50.12734 7.40256 10966 ft 338 kts 119°
2026-05-01 14:26 50.12022 7.43735 10238 ft 339 kts 99°
2026-05-01 14:27 50.11862 7.47386 9486 ft 336 kts 95°
2026-05-01 14:27 50.11813 7.51013 8709 ft 333 kts 94°
2026-05-01 14:27 50.11796 7.54604 8014 ft 329 kts 94°
2026-05-01 14:28 50.11638 7.61582 6866 ft 315 kts 97°
2026-05-01 14:28 50.11298 7.64880 6357 ft 304 kts 104°
2026-05-01 14:28 50.11232 7.68137 5844 ft 303 kts 81°
2026-05-01 14:28 50.12064 7.71114 5495 ft 301 kts 56°
2026-05-01 14:29 50.13618 7.73276 5097 ft 302 kts 31°
2026-05-01 14:29 50.15578 7.74207 4987 ft 290 kts
2026-05-01 14:30 50.20167 7.70244 4965 ft 253 kts 294°
2026-05-01 14:30 50.20699 7.67678 4972 ft 246 kts 272°
2026-05-01 14:30 50.20682 7.65043 4962 ft 243 kts 256°
2026-05-01 14:31 50.19322 7.60490 4963 ft 226 kts 229°
2026-05-01 14:31 50.18396 7.58513 4963 ft 225 kts 229°
2026-05-01 14:31 50.17482 7.56518 4968 ft 228 kts 230°
2026-05-01 14:31 50.16535 7.54508 4982 ft 232 kts 229°
2026-05-01 14:32 50.15563 7.52496 4977 ft 231 kts 228°
2026-05-01 14:32 50.14926 7.51161 4978 ft 232 kts 228°
2026-05-01 14:32 50.13656 7.48505 4960 ft 220 kts 229°
2026-05-01 14:32 50.12780 7.46628 4952 ft 211 kts 229°
2026-05-01 14:33 50.11913 7.44779 4925 ft 210 kts 230°
2026-05-01 14:33 50.11054 7.42959 4953 ft 209 kts 229°
2026-05-01 14:33 50.10059 7.41367 4867 ft 207 kts 211°
2026-05-01 14:33 50.08845 7.40148 4590 ft 207 kts 207°
2026-05-01 14:34 50.07638 7.38988 4333 ft 201 kts 207°
2026-05-01 14:34 50.06475 7.37846 4083 ft 195 kts 207°
2026-05-01 14:34 50.05352 7.36739 3827 ft 186 kts 206°
2026-05-01 14:34 50.04289 7.35694 3576 ft 180 kts 207°
2026-05-01 14:35 50.03243 7.34669 3379 ft 176 kts 207°
2026-05-01 14:35 50.02560 7.33948 3170 ft 172 kts 207°
2026-05-01 14:35 50.01590 7.33006 2978 ft 157 kts 206°
2026-05-01 14:35 50.00664 7.32114 2781 ft 157 kts 207°
2026-05-01 14:36 49.99749 7.31196 2646 ft 157 kts 207°
2026-05-01 14:36 49.98828 7.30299 2377 ft 158 kts 205°
2026-05-01 14:36 49.97892 7.29381 2112 ft 161 kts 207°
2026-05-01 14:36 49.96956 7.28448 1887 ft 157 kts 205°
2026-05-01 14:37 49.96049 7.27543 1671 ft 155 kts 207°
2026-05-01 14:37 49.95162 7.26680 1614 ft 142 kts 212°
2026-05-01 14:37 49.94519 7.26039 1626 ft 78 kts 213°
2026-05-01 14:37 49.94130 7.25662 1629 ft 58 kts 214°
2026-05-01 14:38 49.93955 7.25527 1629 ft 14 kts 161°
2026-05-01 14:38 49.93895 7.25632 1631 ft 13 kts 121°
2026-05-01 14:38 49.93849 7.25750 1632 ft 13 kts 121°
2026-05-01 14:38 49.93822 7.25869 1633 ft 12 kts 59°
2026-05-01 14:39 49.93893 7.25950 1630 ft 14 kts 36°
2026-05-01 14:39 49.93981 7.26044 1629 ft 16 kts 32°
2026-05-01 14:39 49.94085 7.26151 1627 ft 20 kts 35°
2026-05-01 14:39 49.94199 7.26267 1628 ft 19 kts 33°
2026-05-01 14:40 49.94309 7.26383 1627 ft 19 kts 33°
2026-05-01 14:40 49.94415 7.26491 1623 ft 18 kts 37°
2026-05-01 14:40 49.94520 7.26595 1618 ft 18 kts 34°
2026-05-01 14:40 49.94614 7.26636 1621 ft 14 kts 355°
2026-05-01 14:41 49.94695 7.26696 1620 ft 13 kts 34°
2026-05-01 14:41 49.94707 7.26787 1619 ft 10 kts 120°
2026-05-01 14:41 49.94673 7.26869 1618 ft 8 kts 121°
2026-05-01 14:41 49.94694 7.26927 1616 ft 4 kts 31°
2026-05-01 14:42 49.94701 7.26933 1616 ft 0 kts 31°